This is the latest recevied weather packets stored in our database for station/object SQ7ACP-3. If no packets are shown the sender has not sent any weather packets the latest 10 day(s).
| Time | Temp. | Humidity | Pressure | Rain* | Wind** | Luminosity | Snow |
|---|---|---|---|---|---|---|---|
| 1777910652 | 25° C | 31% | 1010.4 hPa | 0 mm | - | - | - |
| 1777910040 | 25° C | 31% | 1010.4 hPa | 0 mm | - | - | - |
| 1777909429 | 25.56° C | 31% | 1010.5 hPa | 0 mm | - | - | - |
| 1777908815 | 25.56° C | 30% | 1010.5 hPa | 0 mm | - | - | - |
| 1777908215 | 25.56° C | 30% | 1010.6 hPa | 0 mm | - | - | - |
| 1777907603 | 26.11° C | 29% | 1010.6 hPa | 0 mm | - | - | - |
| 1777907003 | 26.11° C | 30% | 1010.6 hPa | 0 mm | - | - | - |
| 1777906402 | 26.11° C | 30% | 1010.7 hPa | 0 mm | - | - | - |
| 1777905790 | 26.11° C | 30% | 1010.8 hPa | 0 mm | - | - | - |
| 1777905190 | 26.11° C | 30% | 1010.9 hPa | 0 mm | - | - | - |
| 1777904579 | 26.67° C | 29% | 1011 hPa | 0 mm | - | - | - |
| 1777903977 | 26.11° C | 30% | 1010.9 hPa | 0 mm | - | - | - |
| 1777903377 | 26.11° C | 30% | 1011.1 hPa | 0 mm | - | - | - |
| 1777902765 | 26.11° C | 30% | 1011.2 hPa | 0 mm | - | - | - |
| 1777902153 | 26.11° C | 30% | 1011.2 hPa | 0 mm | - | - | - |
| 1777901540 | 25.56° C | 31% | 1011.4 hPa | 0 mm | - | - | - |
| 1777900927 | 26.67° C | 30% | 1011.3 hPa | 0 mm | - | - | - |
| 1777900315 | 26.67° C | 30% | 1011.4 hPa | 0 mm | - | - | - |
| 1777899715 | 26.67° C | 29% | 1011.6 hPa | 0 mm | - | - | - |
| 1777899105 | 26.11° C | 30% | 1011.7 hPa | 0 mm | - | - | - |
| 1777898502 | 26.67° C | 30% | 1011.7 hPa | 0 mm | - | - | - |
| 1777897890 | 26.11° C | 31% | 1011.8 hPa | 0 mm | - | - | - |
| 1777897290 | 26.11° C | 31% | 1012 hPa | 0 mm | - | - | - |
| 1777896677 | 26.11° C | 31% | 1012.1 hPa | 0 mm | - | - | - |
| 1777896065 | 25° C | 32% | 1012.2 hPa | 0 mm | - | - | - |
* Rain latest hour (hover to see other rain measurements)
** Current wind speed in m/s (hover to see current wind gust speed)